Home > Weather > Laval > Past weeks

Flag for Canada Weather for the Past 2 Weeks in Laval, Quebec, Canada

Now
18 °F

Overcast.


Feels Like: 6 °F
Forecast: N/A
Wind: 10 mph from Northeast

Location: Montreal / Mirabel

Current Time: Feb 8, 2016 at 5:18:29 PM

Latest Report: Feb 8, 2016 at 4:00 PM


Visibility: 45 mi

Pressure: 29.92 "Hg

Humidity: 53%

Dew point: 3 °F

Location of LavalLocation

Historic Weather in Laval — Graph

°F

Laval Temperature Yesterday

Maximum temperature yesterday: 32 °F (at 12:00 AM)
Minimum temperature yesterday: 14 °F (at 4:00 PM)
Average temperature yesterday: 21 °F

High & Low Weather Summary for the Past Weeks

 TemperatureHumidityPressure
High45 °F (Feb 1, 5:48 AM)100% (Jan 26, 9:03 AM)30.42 "Hg (Jan 26, 9:03 AM)
Low9 °F (Jan 28, 1:00 AM)41% (Feb 7, 2:00 PM)29.37 "Hg (Feb 1, 5:48 AM)
Average25 °F78%29.94 "Hg
* Reported Jan 24 3:00 PM — Feb 8 3:00 PM, Laval, Weather by CustomWeather, © 2016

Note: Actual official high and low records may vary slightly from our data, if they occured in-between our weather recording intervals... More about our weather records

Advertising

Laval Weather History for the Previous 24 Hours

 ConditionsComfort  
Time TempWeatherWind HumidityBarometerVisibility
3:00 PM
Mon, Feb 8
18 °FMostly cloudy.17 mph49%29.92 "Hg45 mi
2:00 PM18 °FOvercast.16 mph49%29.92 "Hg45 mi
1:00 PM18 °FOvercast.10 mph53%29.96 "Hg45 mi
12:00 PM16 °FOvercast.14 mph48%29.97 "Hg45 mi
11:00 AM16 °FOvercast.17 mph48%30.00 "Hg45 mi
10:00 AM14 °FOvercast.14 mph48%30.03 "Hg45 mi
9:00 AM14 °FOvercast.10 mph52%30.03 "Hg45 mi
8:00 AM14 °FPartly sunny.12 mph52%30.04 "Hg45 mi
7:00 AM14 °FPassing clouds.15 mph57%30.03 "Hg45 mi
6:00 AM14 °FOvercast.15 mph52%30.04 "Hg25 mi
5:00 AM16 °FPassing clouds.14 mph48%30.04 "Hg25 mi
4:00 AM16 °FPassing clouds.9 mph48%30.06 "Hg25 mi
3:00 AM14 °FPassing clouds.7 mph52%30.08 "Hg25 mi
2:00 AM16 °FPassing clouds.12 mph48%30.11 "Hg25 mi
1:00 AM16 °FOvercast.10 mph48%30.11 "Hg25 mi
12:00 AM16 °FOvercast.8 mph53%30.14 "Hg25 mi
11:00 PM
Sun, Feb 7
16 °FMostly cloudy.13 mph48%30.16 "Hg25 mi
10:00 PM14 °FMostly cloudy.10 mph52%30.19 "Hg25 mi
9:00 PM14 °FMostly cloudy.10 mph48%30.20 "Hg25 mi
8:00 PM14 °FMostly cloudy.10 mph48%30.22 "Hg25 mi
7:00 PM14 °FMostly cloudy.9 mph44%30.20 "Hg25 mi
6:00 PM14 °FOvercast.9 mph48%30.23 "Hg25 mi
5:00 PM14 °FLight snow. Overcast.8 mph52%30.23 "Hg45 mi
Weather by CustomWeather, © 2016

See weather overviewHow to use our weather pages